Location: *
(32.8140°S, 174.6161°E)
Time: 21:35:14
(UTC+00:00)

Meteor 2-2 Rocket - Pass Details

Date: 10 December 2019
Orbit: 853 x 928 km, 81.3° (Epoch: 28 January)

Event Time Altitude Azimuth Distance (km) Brightness Sun altitude
Exits shadow 14:54:22 46° 318° (NW) 1,220 4.5 -22.4°
Maximum altitude 14:55:59 63° 261° (W) 1,030 4.4 -22.2°
Drops below altitude 10° 15:02:02 10° 179° (S) 2,657 7.4 -21.4°
Sets 15:04:35 0° 176° (S) 3,608 8.3 -21.0°
